Вернуться в каталог

STARLINK-37538

АктивенСвязьSSO
NORAD 68844·PAYLOAD·🇺🇸 United States

Запущен Apr 26, 2026 с Vandenberg Space Force Base

Loading…

Ближайшие Пролёты (ближайшие 24 часа)

TLE

СвежийSource: CelesTrak SupGP

Эпоха: Sep 14, 2026, 23:16 UTC

1 68844C 26094F   26257.96993056  .00051802  00000+0  16081-2 0  2570
2 68844  97.2836 271.1303 0001482  87.7307  48.0571 15.33412547    12

Отслеживайте STARLINK-37538 в реальном времени с AllMySat

Download on the App Store